Location: Arthurs Seat
(13.1500°N, 59.6000°W)
Time: 18:14:38
(UTC+00:00)

Meteor 1-18 Rocket - Pass Details

Date: 25 August 2019
Orbit: 837 x 909 km, 81.2° (Epoch: 22 September)

Event Time Altitude Azimuth Distance (km) Brightness Sun altitude
Rises 23:20:45 0° 2° (N) 3,440 7.6 -16.7°
Reaches altitude 10° 23:23:13 10° 7° (N) 2,514 6.8 -17.2°
Maximum altitude 23:28:48 55° 84° (E) 1,049 4.3 -18.5°
Enters shadow 23:32:54 19° 156° (SSE) 1,984 5.8 -19.5°
